Tracking 22441 objects as of 28-Feb-2021
HD Live streaming from Space Station
objects crossing your sky now

FREGAT DEB

Track FREGAT DEB now!
10-day predictions


NORAD ID: 46006
Int'l Code: 2011-037HH
Perigee: 344.8 km
Apogee: 3,618.8 km
Inclination: 51.4 °
Period: 126.6 minutes
Semi major axis: 8352 km
RCS: Unknown
Launch date: July 18, 2011
Source: Commonwealth of Independent States (former USSR) (CIS)
Launch site: TYURATAM MISSILE AND SPACE COMPLEX (TTMTR)

Note: This is SATELLITE DEBRIS
aabbcc
Your satellite tracking list
Your tracking list is empty




NASA's NSSDC Master Catalog

Two Line Element Set (TLE):
1 46006U 11037HH  21059.34293606  .00002314  00000-0  18567-3 0  9998
2 46006  51.4440  42.2515 1959789 216.3629 128.6967 11.37243330 24329
Source of the keplerian elements: AFSPC